Flag for Japan Weather past 2 weeks in Sapporo, Japan

Now
21 °F

Cold.


Feels Like: 21 °F
Forecast: 24 / 31 °F
Wind: 2 mph from North

Location: Sapporo

Current Time: Dec 22, 2014 at 4:50:29 PM

Latest Report: Dec 22, 2014 at 4:00 PM


Visibility: N/A

Pressure: 29.55 "Hg

Humidity: 87%

Dew point: 18 °F

Location of SapporoLocation

Historic Weather in Sapporo — Graph

°F

Sapporo temperature yesterday

Maximum temperature yesterday: 44 °F (at 12:00 AM)
Minimum temperature yesterday: 21 °F (at 10:00 PM)
Average temperature yesterday: 28 °F

Past Weeks' High & Low Weather Summary

 TemperatureHumidityPressure
High44 °F (Dec 20, 9:00 PM)95% (Dec 19, 6:00 AM)30.31 "Hg (Dec 19, 6:00 AM)
Low18 °F (Dec 22, 7:00 AM)32% (Dec 14, 12:00 PM)29.00 "Hg (Dec 17, 5:00 AM)
Average29 °F69%29.86 "Hg
* Reported Dec 7 3:00 PM — Dec 22 3:00 PM, Sapporo, Weather by CustomWeather, © 2014

Note: Actual official high and low records may vary slightly from our data, if they occured in-between our weather recording intervals... More about our weather records

Advertising

Sapporo weather history for previous 24 hours

 ConditionsComfort  
Time TempWeatherWind HumidityBarometerVisibility
3:00 PM
Dec 22
21 °FSnow flurries. Overcast.3 mph86%29.56 "Hg1 mi
2:00 PM21 °FCold.6 mph84%29.55 "HgN/A
1:00 PM21 °FCold.2 mph84%29.56 "HgN/A
11:00 AM20 °FCold.6 mph83%29.59 "HgN/A
10:00 AM20 °FCold.3 mph70%29.62 "HgN/A
9:00 AM20 °FSnow flurries. Scattered clouds.2 mph76%29.65 "Hg5 mi
8:00 AM19 °FCold.6 mph73%29.67 "HgN/A
7:00 AM18 °FCold.8 mph69%29.66 "HgN/A
5:00 AM20 °FCold.5 mph69%29.65 "HgN/A
4:00 AM20 °FCold.6 mph62%29.64 "HgN/A
3:00 AM22 °FSnow flurries. Overcast.8 mph49%29.63 "Hg2 mi
2:00 AM22 °FCold.6 mph48%29.63 "HgN/A
1:00 AM22 °FCold.3 mph49%29.63 "HgN/A
12:00 AM22 °FCold.3 mph46%29.64 "HgN/A
11:00 PM
Dec 21
22 °FCold.3 mph70%29.65 "HgN/A
10:00 PM21 °FCold.3 mph80%29.65 "HgN/A
9:00 PM22 °FSnow flurries. Overcast.3 mph66%29.65 "Hg2 mi
8:00 PM22 °FCold.7 mph58%29.66 "HgN/A
7:00 PM23 °FCold.7 mph53%29.66 "HgN/A
6:00 PM24 °FOvercast.5 mph44%29.65 "Hg9 mi
5:00 PM24 °FCold.2 mph43%29.65 "HgN/A
4:00 PM24 °FCold.3 mph54%29.62 "HgN/A
Weather by CustomWeather, © 2014

See weather overviewHow to use our weather pages